Flag for Malaysia Weather past 2 weeks in Johor Bahru, Malaysia

Now
91 °F

Partly sunny.


Feels Like: 99 °F
Forecast: 79 / 92 °F
Wind: 5 mph from South

Location: Singapore / Paya Lebar

Current Time: Oct 24, 2014 at 5:52:21 PM

Latest Report: Oct 24, 2014 at 5:00 PM


Visibility: N/A

Pressure: 29.74 "Hg

Humidity: 52%

Dew point: 72 °F

Location of Johor BahruLocation

Historic Weather in Johor Bahru — Graph

°F

Johor Bahru temperature yesterday

Maximum temperature yesterday: 93 °F (at 3:00 PM)
Minimum temperature yesterday: 79 °F (at 5:00 AM)
Average temperature yesterday: 86 °F

Past Weeks' High & Low Weather Summary

 TemperatureHumidityPressure
High93 °F (Oct 13, 12:00 PM)100% (Oct 19, 5:00 AM)29.95 "Hg (Oct 19, 5:00 AM)
Low77 °F (Oct 16, 2:00 PM)44% (Oct 24, 3:00 PM)29.71 "Hg (Oct 17, 3:00 PM)
Average85 °F74%29.82 "Hg
* Reported Oct 9 4:00 PM — Oct 24 4:00 PM, Johor Bahru, Weather by CustomWeather, © 2014

Note: Actual official high and low records may vary slightly from our data, if they occured in-between our weather recording intervals... More about our weather records

Advertising

Johor Bahru weather history for previous 24 hours

 ConditionsComfort  
Time TempWeatherWind HumidityBarometerVisibility
4:00 PM
Oct 24
90 °FPartly sunny.7 mph55%29.74 "HgN/A
3:00 PM93 °FPartly sunny.7 mph44%29.77 "HgN/A
2:00 PM91 °FPartly sunny.7 mph46%29.80 "HgN/A
1:00 PM90 °FPartly sunny.7 mph52%29.83 "HgN/A
12:00 PM90 °FPartly sunny.7 mph52%29.86 "HgN/A
11:00 AM88 °FPartly sunny.7 mph55%29.86 "HgN/A
10:00 AM86 °FPartly sunny.3 mph75%29.86 "HgN/A
9:00 AM82 °FPartly sunny.2 mph84%29.86 "HgN/A
8:00 AM81 °FPartly sunny.1 mph84%29.83 "Hg5 mi
7:00 AM79 °FPartly sunny.1 mph89%29.80 "Hg3 mi
6:00 AM79 °FPassing clouds.1 mph89%29.80 "Hg5 mi
5:00 AM81 °FPassing clouds.1 mph84%29.80 "Hg5 mi
11:00 PM
Oct 23
82 °FPassing clouds.3 mph79%29.89 "HgN/A
10:00 PM82 °FPassing clouds.5 mph79%29.86 "HgN/A
9:00 PM84 °FPassing clouds.6 mph74%29.83 "HgN/A
8:00 PM86 °FPassing clouds.8 mph66%29.80 "HgN/A
7:00 PM88 °FPassing clouds.7 mph59%29.80 "HgN/A
6:00 PM91 °FPartly sunny.8 mph49%29.80 "HgN/A
5:00 PM93 °FBroken clouds.7 mph47%29.77 "HgN/A
Weather by CustomWeather, © 2014

See weather overviewHow to use our weather pages